[[{"header":{"parameterUnit":"m.s-1","parameterCategory":1,"la1":30.2991,"la2":30.254,"lo1":-89.0895,"lo2":-89.0444,"dy":0.0017,"dx":0.0017,"nx":28,"ny":28,"refTime":"2026-01-10T03:00:00:Z","depth":0,"parameterNumber":2,"parameterNumberName":"U-component_of_WINDS"},"data":[0,0,0,0,0,0,0,0,0,0,0,0,0,0,0,0,0,0,0,0,0,0,0,0,0,0,0,0,0,0,0,0,0,0,0,0,0,0,0,0,0,0,0,0,0,0,0,0,0,0,0,0,0,0,0,0,0,0,0.9172,0.9171,0,0.9156,0.9156,0.9156,0.9155,0.9155,0.9155,0.9155,0.9137,0.9137,0.9136,0,0,0,0,0,0,0,0,0,0,0,0,0,0.9198,0.9197,0.9172,0.9171,0.9171,0.9156,0.9156,0.9156,0.9155,0.9155,0.9155,0.9155,0.9137,0.9137,0.9136,0,0,0,0,0,0,0,0,0,0,0,0,0,0.9185,0.9197,0.9172,0.9169,0.9168,0.9156,0.9156,0.9156,0.9155,0.9155,0.9155,0.9155,0.9138,0.9137,0.9136,0.9125,0,0,0.9133,0.9133,0,0,0,0,0,0,0,0,0.9186,0.9184,0.9169,0.9169,0.9168,0.9158,0.9159,0.9145,0.9155,0.916,0.9155,0.9155,0.9144,0.9142,0.9139,0.9124,0.9123,0.9133,0.9132,0.9132,0.9132,0,0,0,0,0,0,0,0.9187,0.9185,0.9165,0.9169,0.9169,0.9168,0.9166,0.9156,0.915,0.9159,0.9159,0.9158,0.9143,0.914,0.9138,0.9123,0.9133,0.9132,0.9131,0.9131,0.91,0.9099,0,0,0,0,0,0,0.9188,0.9185,0.9166,0.9165,0.9178,0.9167,0.9165,0.9161,0.9151,0.9149,0.9157,0.9158,0.9141,0.9139,0.9138,0.9125,0.9132,0.9131,0.913,0.91,0.91,0.9099,0,0,0,0,0,0,0.9189,0.9187,0.9167,0.9175,0.9173,0.9166,0.9161,0.916,0.9157,0.9149,0.9148,0.9155,0.9141,0.9139,0.9129,0.9124,0.9131,0.913,0.91,0.91,0.91,0.9098,0,0,0,0,0,0,0.919,0.9187,0.9183,0.9175,0.9172,0.9158,0.9161,0.916,0.9155,0.9155,0.9146,0.9145,0.9141,0.913,0.9128,0.9123,0.9129,0.9101,0.91,0.91,0.9099,0.9098,0.9097,0,0,0,0,0,0.9191,0.9182,0.9183,0.918,0.9167,0.9158,0.9156,0.9153,0.9155,0.9151,0.9146,0.9145,0.9125,0.9129,0.9126,0.9121,0.9101,0.91,0.91,0.9099,0.9098,0.9097,0,0,0,0,0,0,0.9188,0.9181,0.9181,0.9171,0.9165,0.9158,0.9152,0.9152,0.9144,0.9145,0.914,0.9138,0.9128,0.9124,0.9128,0.9111,0.9113,0.9112,0.9114,0.9113,0.9112,0.9113,0.9128,0,0,0,0,0,0.9187,0.918,0.9174,0.9165,0.9163,0.9158,0.9154,0.9152,0.9145,0.9143,0.9137,0.913,0.9123,0.9118,0.911,0.9099,0.9097,0.9094,0.9093,0.9093,0.9091,0.9086,0.9084,0.9097,0.9097,0.9097,0,0,0.9183,0.9178,0.9174,0.9165,0.916,0.9153,0.9156,0.9148,0.9143,0.9141,0.9131,0.9127,0.9119,0.9109,0.9104,0.9105,0.9088,0.9092,0.9092,0.9091,0.9085,0.9084,0.9083,0.9097,0.9097,0.9097,0,0,0.9173,0.9169,0.9161,0.9157,0.915,0.9148,0.9146,0.9139,0.9136,0.9127,0.9126,0.9119,0.9106,0.9101,0.9096,0.9086,0.9085,0.9084,0.908,0.9074,0.9073,0.9072,0.9068,0.9067,0.9083,0.9083,0.9083,0,0.9169,0.9159,0.9157,0.915,0.9146,0.9146,0.9138,0.9134,0.9124,0.9121,0.9123,0.9107,0.9102,0.909,0.9088,0.9084,0.9082,0.9084,0.9073,0.9072,0.9072,0.9068,0.9067,0.9083,0.9083,0.9083,0.9083,0,0.9154,0.9147,0.9142,0.9135,0.913,0.9122,0.9119,0.9115,0.9114,0.9111,0.9101,0.9095,0.9087,0.9084,0.9083,0.9073,0.9074,0.9074,0.9077,0.907,0.9067,0.9065,0.9082,0.9082,0.9082,0.9082,0,0,0.914,0.9134,0.9132,0.9129,0.9122,0.9117,0.911,0.9102,0.9099,0.9093,0.9087,0.9076,0.9078,0.9073,0.9071,0.9066,0.9059,0.9067,0.9067,0.9066,0.9047,0.9046,0.9045,0.9058,0.9058,0.9058,0.9048,0,0.9129,0.9117,0.9116,0.9105,0.9099,0.9099,0.9093,0.9088,0.9086,0.908,0.9077,0.907,0.9072,0.9069,0.9064,0.906,0.9055,0.9061,0.9052,0.9052,0.9053,0.9043,0.9042,0.9033,0.9047,0.9046,0.9046,0,0.9114,0.9109,0.9098,0.9093,0.9091,0.9085,0.9079,0.9074,0.9069,0.9067,0.9063,0.9062,0.9054,0.9058,0.9048,0.9052,0.9048,0.9046,0.9046,0.9044,0.9048,0.9041,0.903,0.9028,0.9044,0.9044,0.9044,0,0.9105,0.9096,0.9088,0.9085,0.908,0.9076,0.9074,0.9069,0.9065,0.906,0.9057,0.9051,0.9047,0.9042,0.904,0.9043,0.903,0.9033,0.9028,0.9028,0.9024,0.9024,0.9012,0.9023,0.9023,0.9023,0.9023,0,0.9092,0.9085,0.9084,0.9079,0.9071,0.9071,0.9063,0.906,0.9057,0.9051,0.9051,0.9046,0.9043,0.9038,0.9036,0.9027,0.9026,0.9024,0.9024,0.9024,0.9024,0.9021,0.9021,0.9023,0.9023,0.9023,0.9023,0,0.908,0.9079,0.9071,0.9067,0.9066,0.9061,0.9057,0.9053,0.9051,0.9044,0.9042,0.9039,0.9033,0.903,0.9022,0.9021,0.9011,0.9012,0.9013,0.9013,0.9008,0.9009,0.8993,0.8991,0.9003,0.9003,0.9003,0,0.9072,0.9067,0.9063,0.906,0.9058,0.9052,0.9049,0.9048,0.9045,0.904,0.9035,0.9029,0.9024,0.9014,0.9011,0.9005,0.9004,0.8999,0.9003,0.9004,0.9004,0.9004,0.9004,0.8998,0.8998,0.8998,0.8998,0,0.9057,0.9057,0.9053,0.9048,0.9045,0.9041,0.9037,0.9034,0.9033,0.9029,0.9023,0.902,0.9012,0.9006,0.9,0.8997,0.8997,0.8997,0.8996,0.8995,0.8997,0.8996,0.9011,0.8997,0.8997,0.8997,0.8997,0.8997,0.9046,0.9042,0.9039,0.9035,0.9032,0.9029,0.9025,0.9023,0.9019,0.9013,0.9013,0.9007,0.9003,0.8995,0.8992,0.8987,0.8988,0.8986,0.8985,0.8985,0.8984,0.8998,0.8986,0.8986,0.8986,0.8986,0.8986,0,0.9031,0.903,0.9026,0.9021,0.9018,0.902,0.9016,0.9013,0.9008,0.9004,0.9,0.8994,0.8988,0.8985,0.898,0.8976,0.8976,0.8975,0.8975,0.8974,0.8984,0.8985,0.8975,0.8975,0.8975,0.8975,0.8975,0.8975,0.9023,0.9016,0.9016,0.9008,0.9007,0.9002,0.8999,0.8997,0.8994,0.8987,0.8983,0.8982,0.8979,0.8974,0.8969,0.8968,0.8966,0.8965,0.8964,0.8972,0.8973,0.8974,0.8976,0.8964,0.8964,0.8955,0.8955,0.8955]},{"header":{"parameterUnit":"m.s-1","parameterCategory":1,"la1":30.2991,"la2":30.254,"lo1":-89.0895,"lo2":-89.0444,"dy":0.0017,"dx":0.0017,"nx":28,"ny":28,"refTime":"2026-01-10T03:00:00:Z","depth":0,"parameterNumber":3,"parameterNumberName":"V-component_of_WINDS"},"data":[0,0,0,0,0,0,0,0,0,0,0,0,0,0,0,0,0,0,0,0,0,0,0,0,0,0,0,0,0,0,0,0,0,0,0,0,0,0,0,0,0,0,0,0,0,0,0,0,0,0,0,0,0,0,0,0,0,0,-8.0361,-8.0362,0,-8.0511,-8.0513,-8.0515,-8.0419,-8.0414,-8.041,-8.0405,-8.0554,-8.0562,-8.057,0,0,0,0,0,0,0,0,0,0,0,0,0,-7.9985,-7.9992,-8.036,-8.0362,-8.0364,-8.0511,-8.0513,-8.0515,-8.0419,-8.0414,-8.0408,-8.0403,-8.0552,-8.0561,-8.0571,0,0,0,0,0,0,0,0,0,0,0,0,0,-8.0143,-7.9995,-8.036,-8.0334,-8.0333,-8.0511,-8.0513,-8.0516,-8.042,-8.0414,-8.0407,-8.0401,-8.0549,-8.056,-8.0573,-8.0782,0,0,-8.061,-8.0615,0,0,0,0,0,0,0,0,-8.0134,-8.0157,-8.0336,-8.0336,-8.0336,-8.0439,-8.0435,-8.0605,-8.0422,-8.0387,-8.0405,-8.0397,-8.0521,-8.0535,-8.0578,-8.0789,-8.0795,-8.0611,-8.0618,-8.0624,-8.0627,0,0,0,0,0,0,0,-8.0123,-8.015,-8.042,-8.0339,-8.0339,-8.0314,-8.0329,-8.0467,-8.049,-8.039,-8.0383,-8.0403,-8.052,-8.0567,-8.0581,-8.0798,-8.0611,-8.0621,-8.0629,-8.0634,-8.1189,-8.1196,0,0,0,0,0,0,-8.0115,-8.0141,-8.0415,-8.0424,-8.0217,-8.0326,-8.0343,-8.0413,-8.0488,-8.0493,-8.0408,-8.0398,-8.0549,-8.0567,-8.0586,-8.0837,-8.0623,-8.0635,-8.0642,-8.1181,-8.119,-8.1198,0,0,0,0,0,0,-8.0108,-8.0141,-8.0409,-8.0281,-8.0314,-8.034,-8.0419,-8.0419,-8.0466,-8.0502,-8.0505,-8.0452,-8.0544,-8.0569,-8.0735,-8.0841,-8.064,-8.0651,-8.1173,-8.1184,-8.1194,-8.1341,0,0,0,0,0,0,-8.0097,-8.0138,-8.0219,-8.0284,-8.0321,-8.0557,-8.0426,-8.0427,-8.0488,-8.0476,-8.0544,-8.0549,-8.0541,-8.0717,-8.0747,-8.0854,-8.0661,-8.1163,-8.1178,-8.1191,-8.1327,-8.1356,-8.1381,0,0,0,0,0,-8.0084,-8.0253,-8.0224,-8.0258,-8.0423,-8.0564,-8.0585,-8.0574,-8.0497,-8.0578,-8.0601,-8.0547,-8.0824,-8.0735,-8.0767,-8.088,-8.1156,-8.1174,-8.119,-8.1315,-8.135,-8.138,0,0,0,0,0,0,-8.0198,-8.0261,-8.0229,-8.0425,-8.049,-8.0547,-8.0649,-8.0611,-8.0698,-8.0682,-8.0663,-8.0679,-8.0853,-8.0883,-8.0782,-8.1087,-8.0978,-8.1002,-8.1062,-8.1096,-8.1122,-8.1112,-8.0671,0,0,0,0,0,-8.0247,-8.0357,-8.0405,-8.0573,-8.0608,-8.0623,-8.0684,-8.067,-8.0736,-8.0762,-8.0797,-8.0862,-8.0964,-8.1031,-8.1126,-8.133,-8.1344,-8.1424,-8.1451,-8.1473,-8.1494,-8.1605,-8.1641,-8.1253,-8.1253,-8.1253,0,0,-8.0347,-8.0395,-8.0465,-8.0597,-8.0646,-8.076,-8.0647,-8.0772,-8.0856,-8.078,-8.0941,-8.0969,-8.1039,-8.1226,-8.1309,-8.1256,-8.1604,-8.1494,-8.1511,-8.1521,-8.1626,-8.1662,-8.1695,-8.1265,-8.1263,-8.1261,0,0,-8.0588,-8.0635,-8.0781,-8.0833,-8.0909,-8.0918,-8.0953,-8.1017,-8.1034,-8.1194,-8.1141,-8.1239,-8.1415,-8.1468,-8.1518,-8.1781,-8.1734,-8.1812,-8.1953,-8.2061,-8.2091,-8.2118,-8.2213,-8.2247,-8.1833,-8.1833,-8.1833,0,-8.0702,-8.0874,-8.086,-8.099,-8.105,-8.0989,-8.1136,-8.1186,-8.1289,-8.1331,-8.127,-8.149,-8.1533,-8.1731,-8.1796,-8.1838,-8.1877,-8.1804,-8.2088,-8.2115,-8.214,-8.223,-8.2266,-8.1842,-8.1841,-8.184,-8.1839,0,-8.1011,-8.1131,-8.1239,-8.1343,-8.1414,-8.1552,-8.1558,-8.1632,-8.1612,-8.1627,-8.1792,-8.1842,-8.1947,-8.1992,-8.1973,-8.2189,-8.2153,-8.2091,-8.1981,-8.2187,-8.2271,-8.2305,-8.1855,-8.1852,-8.1849,-8.1847,0,0,-8.1328,-8.1424,-8.1464,-8.1511,-8.1591,-8.1682,-8.1817,-8.1922,-8.1986,-8.2059,-8.2171,-8.2322,-8.2265,-8.2322,-8.2308,-8.2403,-8.2609,-8.2329,-8.233,-8.238,-8.2851,-8.2898,-8.2938,-8.2578,-8.2585,-8.259,-8.2845,0,-8.1575,-8.1813,-8.1805,-8.2026,-8.2137,-8.2081,-8.2198,-8.2259,-8.2278,-8.2373,-8.2391,-8.2499,-8.2416,-8.245,-8.2541,-8.2565,-8.2703,-8.2546,-8.2682,-8.2687,-8.2668,-8.2982,-8.3032,-8.3271,-8.2878,-8.2883,-8.2887,0,-8.1895,-8.1982,-8.2215,-8.228,-8.2326,-8.2432,-8.2528,-8.262,-8.2688,-8.2694,-8.2759,-8.273,-8.2865,-8.2752,-8.2938,-8.2831,-8.2886,-8.2906,-8.2915,-8.2928,-8.2801,-8.3004,-8.3346,-8.3383,-8.2939,-8.2935,-8.2931,0,-8.2105,-8.2279,-8.2441,-8.2483,-8.2562,-8.2638,-8.2675,-8.2736,-8.28,-8.2883,-8.2925,-8.3022,-8.3075,-8.3151,-8.3148,-8.3065,-8.3337,-8.3223,-8.3346,-8.3346,-8.3406,-8.3403,-8.3763,-8.344,-8.344,-8.3439,-8.3438,0,-8.2382,-8.2527,-8.2537,-8.2637,-8.2797,-8.2786,-8.2945,-8.2973,-8.3029,-8.3132,-8.3089,-8.3186,-8.3177,-8.3275,-8.3274,-8.3429,-8.3452,-8.3461,-8.3459,-8.3466,-8.3465,-8.3502,-8.3486,-8.3449,-8.3447,-8.3445,-8.3443,0,-8.2643,-8.2656,-8.283,-8.2892,-8.291,-8.3026,-8.3078,-8.3173,-8.3187,-8.3319,-8.3349,-8.3372,-8.3485,-8.349,-8.362,-8.3619,-8.3808,-8.3787,-8.3786,-8.3783,-8.3906,-8.3895,-8.4304,-8.4357,-8.3999,-8.4002,-8.4005,0,-8.282,-8.2931,-8.3005,-8.3073,-8.3115,-8.3223,-8.3289,-8.3282,-8.3352,-8.3439,-8.3523,-8.3632,-8.372,-8.3904,-8.3931,-8.403,-8.4011,-8.4148,-8.4026,-8.403,-8.4015,-8.4009,-8.402,-8.4172,-8.4176,-8.4179,-8.4182,0,-8.3133,-8.3134,-8.3231,-8.3333,-8.3413,-8.3491,-8.3564,-8.3621,-8.3622,-8.3703,-8.382,-8.3888,-8.4022,-8.4132,-8.4229,-8.4263,-8.4224,-8.422,-8.4254,-8.4262,-8.4258,-8.4263,-8.3852,-8.4211,-8.4208,-8.4206,-8.4204,-8.4203,-8.3358,-8.3454,-8.3523,-8.3633,-8.3687,-8.3757,-8.3849,-8.3877,-8.3975,-8.4085,-8.4074,-8.4204,-8.4269,-8.4395,-8.4439,-8.4539,-8.4492,-8.4541,-8.4553,-8.4566,-8.458,-8.4242,-8.4556,-8.4555,-8.4555,-8.4554,-8.4553,0,-8.3669,-8.3711,-8.3813,-8.3917,-8.4004,-8.3961,-8.4039,-8.4114,-8.423,-8.4295,-8.4383,-8.4518,-8.4624,-8.466,-8.4763,-8.4836,-8.4821,-8.4864,-8.4859,-8.4868,-8.4615,-8.4576,-8.4875,-8.4875,-8.4875,-8.4875,-8.4875,-8.4875,-8.3842,-8.4003,-8.4012,-8.42,-8.424,-8.4369,-8.4418,-8.4481,-8.4533,-8.4686,-8.4776,-8.4799,-8.4852,-8.4959,-8.5054,-8.5062,-8.5102,-8.5154,-8.5154,-8.4917,-8.4885,-8.4854,-8.4818,-8.5162,-8.5163,-8.5398,-8.54,-8.5401]}]]